RYR7271 EPGD-ESMX

Flight info

Callsign RYR7271
Flight time 0h 44m
Altitude 28000
Route VAPOS N133 PENOR DCT TEMLI
Aircraft B38M/M-SDE1FGHILORVWXY/HB1

Departure

Time 2026-04-25 18:22
Airport Gdańsk Lech Wałęsa Airport (EPGD)

Arrival

Time 2026-04-25 19:06
Airport Växjö Kronoberg Airport (ESMX)
Time Latitude Longitude Altitude Speed Heading
2026-04-25 18:00 54.38176 18.46387 462 ft 0 kts 23°
2026-04-25 18:14 54.38151 18.46362 459 ft 4 kts 48°
2026-04-25 18:14 54.38141 18.46325 462 ft 4 kts 95°
2026-04-25 18:14 54.38143 18.46305 462 ft 0 kts 113°
2026-04-25 18:17 54.38143 18.46306 462 ft 1 kts 113°
2026-04-25 18:17 54.38128 18.46367 460 ft 13 kts 113°
2026-04-25 18:18 54.38084 18.46545 462 ft 15 kts 112°
2026-04-25 18:18 54.38017 18.46609 462 ft 13 kts 196°
2026-04-25 18:18 54.37933 18.46632 462 ft 14 kts 120°
2026-04-25 18:18 54.37882 18.46841 462 ft 26 kts 115°
2026-04-25 18:19 54.37803 18.47163 460 ft 31 kts 112°
2026-04-25 18:19 54.37715 18.47511 462 ft 32 kts 111°
2026-04-25 18:19 54.37630 18.47858 467 ft 31 kts 112°
2026-04-25 18:19 54.37545 18.48196 473 ft 30 kts 112°
2026-04-25 18:20 54.37463 18.48527 488 ft 31 kts 112°
2026-04-25 18:20 54.37375 18.48884 490 ft 34 kts 113°
2026-04-25 18:20 54.37293 18.49207 493 ft 17 kts 113°
2026-04-25 18:20 54.37206 18.49253 498 ft 16 kts 211°
2026-04-25 18:21 54.37137 18.49159 495 ft 7 kts 242°
2026-04-25 18:21 54.37151 18.49071 492 ft 10 kts 293°
2026-04-25 18:21 54.37218 18.48800 492 ft 58 kts 292°
2026-04-25 18:21 54.37485 18.47722 469 ft 135 kts 293°
2026-04-25 18:22 54.37910 18.46108 1119 ft 152 kts 292°
2026-04-25 18:22 54.38056 18.45576 1494 ft 152 kts 292°
2026-04-25 18:22 54.38851 18.42615 2874 ft 181 kts 294°
2026-04-25 18:22 54.39366 18.40572 3683 ft 190 kts 292°
2026-04-25 18:23 54.39870 18.38376 4408 ft 207 kts 292°
2026-04-25 18:23 54.40423 18.36026 5063 ft 224 kts 292°
2026-04-25 18:23 54.41027 18.33498 5936 ft 231 kts 292°
2026-04-25 18:23 54.41654 18.30904 6773 ft 238 kts 292°
2026-04-25 18:24 54.42331 18.28257 7538 ft 250 kts 299°
2026-04-25 18:24 54.43563 18.25996 8027 ft 274 kts 322°
2026-04-25 18:24 54.45206 18.24197 8726 ft 283 kts 323°
2026-04-25 18:24 54.46879 18.22379 9633 ft 287 kts 323°
2026-04-25 18:25 54.48585 18.20545 10424 ft 291 kts 323°
2026-04-25 18:25 54.50307 18.18703 11290 ft 293 kts 323°
2026-04-25 18:25 54.52047 18.16849 12182 ft 295 kts 323°
2026-04-25 18:25 54.53805 18.14979 13048 ft 298 kts 323°
2026-04-25 18:26 54.55580 18.13090 13873 ft 301 kts 323°
2026-04-25 18:26 54.57368 18.11185 14668 ft 304 kts 322°
2026-04-25 18:26 54.59169 18.09257 15456 ft 305 kts 320°
2026-04-25 18:26 54.60866 18.07059 16229 ft 305 kts 316°
2026-04-25 18:27 54.62562 18.04817 17032 ft 308 kts 315°
2026-04-25 18:27 54.64275 18.02571 17817 ft 310 kts 315°
2026-04-25 18:27 54.66003 18.00316 18472 ft 312 kts 315°
2026-04-25 18:27 54.67738 17.98057 19135 ft 313 kts 315°
2026-04-25 18:28 54.69484 17.95785 19790 ft 315 kts 315°
2026-04-25 18:28 54.71238 17.93501 20409 ft 317 kts 314°
2026-04-25 18:28 54.72976 17.91235 21015 ft 318 kts 314°
2026-04-25 18:29 54.76558 17.86558 22259 ft 322 kts 314°
2026-04-25 18:29 54.78352 17.84214 22847 ft 324 kts 314°
2026-04-25 18:30 54.84569 17.78730 24427 ft 342 kts 324°
2026-04-25 18:30 54.86743 17.77009 24900 ft 344 kts 325°
2026-04-25 18:30 54.88930 17.75283 25408 ft 345 kts 325°
2026-04-25 18:30 54.91117 17.73557 26001 ft 345 kts 325°
2026-04-25 18:31 54.93298 17.71835 26582 ft 344 kts 325°
2026-04-25 18:31 54.95474 17.70116 27171 ft 343 kts 326°
2026-04-25 18:31 54.97660 17.68409 27444 ft 343 kts 327°
2026-04-25 18:31 54.99837 17.66756 27685 ft 340 kts 327°
2026-04-25 18:32 55.01981 17.65122 27795 ft 340 kts 327°
2026-04-25 18:32 55.04154 17.63461 27729 ft 344 kts 328°
2026-04-25 18:32 55.06356 17.61775 27710 ft 346 kts 328°
2026-04-25 18:32 55.08566 17.60081 27722 ft 347 kts 328°
2026-04-25 18:33 55.10779 17.58383 27720 ft 347 kts 328°
2026-04-25 18:33 55.12988 17.56685 27725 ft 347 kts 328°
2026-04-25 18:33 55.15201 17.54982 27719 ft 347 kts 328°
2026-04-25 18:33 55.17415 17.53277 27719 ft 347 kts 328°
2026-04-25 18:34 55.19623 17.51575 27719 ft 347 kts 328°
2026-04-25 18:34 55.21825 17.49843 27719 ft 346 kts 327°
2026-04-25 18:34 55.24020 17.48099 27718 ft 346 kts 327°
2026-04-25 18:34 55.26210 17.46359 27719 ft 346 kts 327°
2026-04-25 18:35 55.28412 17.44609 27720 ft 346 kts 327°
2026-04-25 18:35 55.30609 17.42861 27719 ft 346 kts 327°
2026-04-25 18:35 55.32805 17.41111 27719 ft 346 kts 327°
2026-04-25 18:35 55.35007 17.39354 27734 ft 350 kts 328°
2026-04-25 18:36 55.37232 17.37579 27709 ft 351 kts 329°
2026-04-25 18:36 55.39365 17.35569 27698 ft 344 kts 319°
2026-04-25 18:36 55.41118 17.32781 27715 ft 338 kts 307°
2026-04-25 18:36 55.42679 17.29682 27718 ft 339 kts 309°
2026-04-25 18:37 55.44288 17.26647 27725 ft 339 kts 310°
2026-04-25 18:37 55.45909 17.23622 27722 ft 339 kts 310°
2026-04-25 18:37 55.47513 17.20651 27722 ft 339 kts 310°
2026-04-25 18:37 55.49139 17.17649 27722 ft 339 kts 310°
2026-04-25 18:38 55.50775 17.14631 27730 ft 339 kts 310°
2026-04-25 18:38 55.52408 17.11618 27730 ft 339 kts 310°
2026-04-25 18:38 55.54039 17.08605 27727 ft 340 kts 310°
2026-04-25 18:38 55.55671 17.05587 27727 ft 340 kts 310°
2026-04-25 18:39 55.57301 17.02568 27727 ft 340 kts 310°
2026-04-25 18:39 55.58932 16.99545 27727 ft 340 kts 310°
2026-04-25 18:39 55.60563 16.96519 27708 ft 340 kts 311°
2026-04-25 18:39 55.62190 16.93496 27725 ft 338 kts 311°
2026-04-25 18:40 55.63809 16.90482 27727 ft 337 kts 311°
2026-04-25 18:40 55.65383 16.87544 27736 ft 321 kts 311°
2026-04-25 18:40 55.66885 16.84736 27741 ft 306 kts 311°
2026-04-25 18:40 55.68316 16.82056 27735 ft 292 kts 310°
2026-04-25 18:41 55.69691 16.79481 27688 ft 287 kts 311°
2026-04-25 18:41 55.71100 16.76844 27327 ft 301 kts 311°
2026-04-25 18:41 55.72552 16.74125 26911 ft 305 kts 311°
2026-04-25 18:41 55.74022 16.71370 26561 ft 309 kts 311°
2026-04-25 18:42 55.75498 16.68598 26205 ft 309 kts 311°
2026-04-25 18:42 55.75975 16.67702 26085 ft 308 kts 311°
2026-04-25 18:42 55.77938 16.64007 25591 ft 306 kts 311°
2026-04-25 18:42 55.79394 16.61264 25235 ft 304 kts 311°
2026-04-25 18:43 55.80837 16.58541 24881 ft 301 kts 311°
2026-04-25 18:43 55.82271 16.55833 24532 ft 299 kts 311°
2026-04-25 18:43 55.83691 16.53148 24189 ft 297 kts 311°
2026-04-25 18:43 55.85553 16.49620 23743 ft 294 kts 310°
2026-04-25 18:44 55.86500 16.47826 23505 ft 293 kts 310°
2026-04-25 18:44 55.87887 16.45193 23163 ft 291 kts 310°
2026-04-25 18:44 55.89266 16.42575 22776 ft 288 kts 310°
2026-04-25 18:44 55.90607 16.40024 22442 ft 284 kts 310°
2026-04-25 18:45 55.91946 16.37473 22129 ft 280 kts 310°
2026-04-25 18:45 55.93283 16.34926 21826 ft 285 kts 310°
2026-04-25 18:45 55.94646 16.32327 21512 ft 290 kts 311°
2026-04-25 18:45 55.96031 16.29684 21187 ft 292 kts 311°
2026-04-25 18:46 55.97418 16.27032 20895 ft 292 kts 311°
2026-04-25 18:46 55.98805 16.24378 20579 ft 292 kts 311°
2026-04-25 18:46 56.00189 16.21725 20266 ft 291 kts 311°
2026-04-25 18:46 56.01570 16.19077 19952 ft 291 kts 311°
2026-04-25 18:47 56.02946 16.16432 19648 ft 291 kts 311°
2026-04-25 18:47 56.04321 16.13789 19339 ft 290 kts 311°
2026-04-25 18:47 56.05694 16.11146 19062 ft 290 kts 310°
2026-04-25 18:47 56.07064 16.08507 18735 ft 289 kts 311°
2026-04-25 18:48 56.08424 16.05883 18420 ft 286 kts 311°
2026-04-25 18:48 56.09770 16.03283 18115 ft 283 kts 311°
2026-04-25 18:48 56.11100 16.00711 17778 ft 280 kts 311°
2026-04-25 18:48 56.12416 15.98163 17459 ft 276 kts 311°
2026-04-25 18:49 56.13711 15.95653 17165 ft 272 kts 311°
2026-04-25 18:49 56.14988 15.93176 16875 ft 268 kts 311°
2026-04-25 18:49 56.16253 15.90720 16594 ft 270 kts 312°
2026-04-25 18:49 56.17543 15.88213 16298 ft 276 kts 312°
2026-04-25 18:50 56.18849 15.85672 16006 ft 278 kts 312°
2026-04-25 18:50 56.20157 15.83126 15714 ft 277 kts 312°
2026-04-25 18:50 56.21465 15.80576 15422 ft 276 kts 312°
2026-04-25 18:50 56.22763 15.78041 15129 ft 275 kts 312°
2026-04-25 18:51 56.24060 15.75507 14836 ft 275 kts 313°
2026-04-25 18:51 56.24915 15.73835 14647 ft 274 kts 313°
2026-04-25 18:51 56.26640 15.70456 14260 ft 274 kts 313°
2026-04-25 18:51 56.27927 15.67934 13973 ft 273 kts 313°
2026-04-25 18:52 56.29213 15.65411 13689 ft 273 kts 313°
2026-04-25 18:52 56.30490 15.62902 13357 ft 272 kts 314°
2026-04-25 18:52 56.31766 15.60392 13037 ft 269 kts 314°
2026-04-25 18:52 56.33021 15.57919 12752 ft 265 kts 314°
2026-04-25 18:53 56.34256 15.55485 12471 ft 261 kts 314°
2026-04-25 18:53 56.35472 15.53086 12194 ft 257 kts 315°
2026-04-25 18:53 56.36669 15.50721 11971 ft 252 kts 315°
2026-04-25 18:53 56.37888 15.48524 11816 ft 248 kts 321°
2026-04-25 18:54 56.40555 15.44274 11006 ft 262 kts 321°
2026-04-25 18:54 56.41918 15.42071 10698 ft 264 kts 321°
2026-04-25 18:54 56.43281 15.39852 10410 ft 263 kts 321°
2026-04-25 18:55 56.44634 15.37645 10126 ft 260 kts 321°
2026-04-25 18:55 56.45960 15.35474 9924 ft 255 kts 321°
2026-04-25 18:55 56.47267 15.33333 9627 ft 253 kts 321°
2026-04-25 18:55 56.48565 15.31203 9301 ft 251 kts 321°
2026-04-25 18:56 56.49850 15.29090 8993 ft 249 kts 321°
2026-04-25 18:56 56.51126 15.26991 8704 ft 246 kts 321°
2026-04-25 18:56 56.52385 15.24919 8424 ft 243 kts 321°
2026-04-25 18:56 56.53629 15.22869 8151 ft 240 kts 321°
2026-04-25 18:57 56.54856 15.20845 7869 ft 237 kts 322°
2026-04-25 18:57 56.56069 15.18843 7611 ft 234 kts 322°
2026-04-25 18:57 56.57264 15.16867 7350 ft 231 kts 322°
2026-04-25 18:57 56.58044 15.15577 7184 ft 229 kts 322°
2026-04-25 18:58 56.59637 15.12940 6849 ft 235 kts 322°
2026-04-25 18:58 56.62084 15.08883 6309 ft 239 kts 322°
2026-04-25 18:58 56.63308 15.06852 6026 ft 237 kts 322°
2026-04-25 18:59 56.65716 15.02847 5483 ft 232 kts 322°
2026-04-25 18:59 56.68063 14.98939 4966 ft 226 kts 322°
2026-04-25 19:00 56.70321 14.95171 4582 ft 214 kts 322°
2026-04-25 19:00 56.71396 14.93377 4472 ft 205 kts 323°
2026-04-25 19:01 56.73405 14.90018 4247 ft 187 kts 323°
2026-04-25 19:01 56.74350 14.88435 4135 ft 186 kts 323°
2026-04-25 19:01 56.75316 14.86814 4048 ft 191 kts 323°
2026-04-25 19:01 56.76295 14.85180 4050 ft 191 kts 323°
2026-04-25 19:02 56.78303 14.81899 3651 ft 197 kts 323°
2026-04-25 19:02 56.79328 14.80255 3499 ft 192 kts 323°
2026-04-25 19:02 56.80290 14.78688 3383 ft 179 kts 323°
2026-04-25 19:03 56.81500 14.76696 3034 ft 174 kts 323°
2026-04-25 19:03 56.82914 14.74332 2607 ft 148 kts 323°
2026-04-25 19:03 56.83633 14.73072 2191 ft 139 kts 323°
2026-04-25 19:04 56.85053 14.71384 1692 ft 117 kts 345°
2026-04-25 19:04 56.85866 14.71070 1626 ft 121 kts 353°
2026-04-25 19:05 56.87517 14.70941 1384 ft 125 kts
2026-04-25 19:05 56.89290 14.71295 1099 ft 132 kts
2026-04-25 19:05 56.90197 14.71653 971 ft 134 kts
2026-04-25 19:06 56.91122 14.72034 812 ft 139 kts
2026-04-25 19:06 56.92882 14.72774 600 ft 100 kts 13°
2026-04-25 19:06 56.93240 14.72943 598 ft 16 kts 20°
2026-04-25 19:07 56.93312 14.72956 596 ft 4 kts 213°
2026-04-25 19:07 56.93263 14.72930 597 ft 13 kts 191°
2026-04-25 19:08 56.92949 14.72811 600 ft 27 kts 193°
2026-04-25 19:08 56.92763 14.72731 600 ft 28 kts 193°
2026-04-25 19:09 56.92538 14.72978 599 ft 9 kts 159°
2026-04-25 19:09 56.92496 14.72971 599 ft 10 kts 185°
2026-04-25 19:09 56.92445 14.73027 599 ft 2 kts 141°
2026-04-25 19:10 56.92444 14.73029 599 ft 0 kts 141°